Location: Peralejo
(40.5415°N, 4.1259°W)
Time: 12:43:14
(UTC+00:00)

Cosmos 1459 Rocket - Pass Details

Date: 18 April 2024
Orbit: 936 x 999 km, 83.0° (Epoch: 23 May)

Event Time Altitude Azimuth Distance (km) Brightness Sun altitude
Rises 22:29:15 0° 351° (N) 3,607 7.9 -32.7°
Reaches altitude 10° 22:31:44 10° 351° (N) 2,662 7.0 -32.9°
Enters shadow 22:36:38 60° 341° (NNW) 1,075 4.3 -33.4°
